x

Cape Elizabeth- 45nm Nw Of Aberdeen, Wa (46041) Wave Buoy

6:50 - Fri 1st Aug 2014 All times are PDT. -7 hours from GMT.

  • Sig Wave height 4.3ft
  • Swell Direction
  • Peak Period 7s
  • Average Period 6s
  • Wind
    13mph, 16mph gusts
  • Sea Temp 56°f
  • Ar Temp 60°f
  • Sea Pressure 1015.2mb
  • Cape Elizabeth- 45nm Nw Of Aberdeen, Wa
  • Cape Elizabeth- 45nm Nw Of Aberdeen, Wa

More Historic Weather Station data

Upgrade to MSW Pro to gain access to the past 30 days of data for over 8000 Wavebouys and Weather Stations around the globe.

Join Pro

Comparision Forecast

View Surf forecast
   
Sex 08/01 6:50 4.5ft 7s 6s 13 16 mph 1015.2mb 56f 60f
5:50 4ft 7s 6s 9 11 mph 1015.6mb 58f 60f
4:50 4.5ft 7s 6s 7 9 mph 1016.3mb 60f 60f
3:50 4.5ft 7s 6s 9
mph
1016.5mb 60f 60f
2:50 4.5ft 7s 6s 7 9 mph 1016.9mb 60f 60f
1:50 4ft 7s 6s 11 13 mph 1016.9mb 59f 60f
12:50 4ft 7s 5s 7 9 mph 1017.1mb 60f 59f
11:50 4.5ft 7s 6s  -  2 mph 1017.6mb 58f 56f
10:50 4ft 6s 5s 2
mph
1017.8mb 57f 54f
9:50 4ft 6s 5s 4
mph
1017.9mb 57f 55f
8:50 4ft 6s 5s 4
mph
1017.9mb 57f 57f
7:50 3.5ft 6s 5s 2 4 mph 1018.1mb 56f 57f
6:50 3.5ft 6s 5s 7
mph
1017.8mb 56f 57f
5:50 3.5ft 6s 5s 11
mph
1017.6mb 56f 58f
4:50 3.5ft 6s 5s 11 13 mph 1017.5mb 56f 57f
3:50 3.5ft 6s 5s 11
mph
1017.5mb 56f 57f
2:50 3.5ft 6s 5s 11
mph
1017.6mb 56f 57f
1:50 3.5ft 6s 5s 11
mph
1017.7mb 56f 57f
12:50 3.5ft 5s 5s 11 13 mph 1017.7mb 56f 57f
Qui 07/31 11:50 3.5ft 5s 5s 13 16 mph 1017.7mb 56f 57f
10:50 3.5ft 6s 5s 13 16 mph 1017.9mb 56f 58f
9:50 3.5ft 5s 5s 16
mph
1018.2mb 57f 58f
8:50 3.5ft 6s 5s 13 16 mph 1017.8mb 58f 58f
7:50 3.5ft 6s 4s 16 18 mph 1017.9mb 58f 59f
6:50 3.5ft 5s 4s 16 18 mph 1017.9mb 59f 60f
5:50 3.5ft 6s 4s 18 20 mph 1018.1mb 59f 60f
4:50 3.5ft 5s 4s 18 22 mph 1018.3mb 59f 60f
3:50 3.5ft 5s 4s 18 22 mph 1018.8mb 59f 60f
2:50 3ft 7s 4s 16 20 mph 1019.3mb 59f 59f
1:50 2.5ft 6s 4s 13 16 mph 1019.6mb 59f 59f
12:50 3ft 6s 5s 13
mph
1019.8mb 59f 59f
11:50 2.5ft 14s 5s 11 16 mph 1020mb 58f 59f
10:50 2.5ft 5s 5s 13 16 mph 1019.7mb 58f 58f
9:50 3ft 14s 5s 13 16 mph 1019.8mb 58f 58f
8:50 2.5ft 5s 5s 13 16 mph 1020mb 58f 58f
7:50 3ft 5s 5s 13 16 mph 1019.9mb 58f 58f
6:50 2.5ft 5s 5s 13 16 mph 1019.8mb 57f 58f
5:50 3ft 5s 5s 11 13 mph 1019.9mb 57f 58f
4:50 3ft 5s 5s 11 13 mph 1020mb 57f 58f
3:50 3ft 5s 5s 9 11 mph 1019.9mb 57f 57f
2:50 3ft 5s 5s 11 13 mph 1019.8mb 57f 57f
1:50 3ft 5s 5s 11 13 mph 1020.1mb 57f 57f
12:50 3.5ft 6s 4s 11 13 mph 1020.4mb 57f 57f
Qua 07/30 11:50 3.5ft 6s 5s 13 16 mph 1020.3mb 57f 57f
10:50 3.5ft 6s 4s 16 18 mph 1020.5mb 56f 57f
9:50 3.5ft 6s 4s 20 22 mph 1020.2mb 56f 58f
8:50 3.5ft 5s 4s 18 20 mph 1020mb 56f 58f
7:50 3.5ft 5s 4s 20 22 mph 1020.1mb 56f 59f
6:50 3.5ft 5s 4s 18 20 mph 1020.2mb 56f 59f
5:50 3.5ft 7s 4s 20 25 mph 1020.2mb 57f 59f
4:50 3.5ft 7s 4s 20 22 mph 1020.4mb 58f 59f
3:50 3.5ft 7s 4s 18 22 mph 1020.8mb 58f 59f
2:50 3.5ft 6s 5s 18 20 mph 1021.2mb 58f 59f
1:50 3.5ft 7s 5s 16 20 mph 1021.5mb 58f 59f
12:50 3.5ft 5s 5s 16 18 mph 1021.5mb 58f 59f
11:50 3.5ft 7s 5s 16 18 mph 1021.3mb 58f 59f
10:50 3ft 5s 5s 13 18 mph 1021.2mb 58f 59f
9:50 3ft 6s 5s 13 16 mph 1021.3mb 58f 58f
8:50 3ft 7s 5s 13
mph
1021.3mb 58f 58f
7:50 3ft 8s 5s 9 11 mph 1021.4mb 58f 57f
6:50 3.5ft 7s 5s 9
mph
1021.2mb 57f 56f
5:50 3.5ft 8s 5s 9
mph
1020.8mb 57f 57f
4:50 3.5ft 7s 5s 9 11 mph 1020.7mb 57f 58f
3:50 3.5ft 7s 5s 11 13 mph 1020.4mb 58f 58f
2:50 3.5ft 8s 5s 11 13 mph 1020.5mb 58f 58f
1:50 3.5ft 7s 5s 13 16 mph 1020.6mb 58f 58f
12:50 3ft 7s 5s 13
mph
1020.4mb 58f 58f
Ter 07/29 11:50 3.5ft 8s 5s 11 13 mph 1020.2mb 58f 58f
10:50 4ft 7s 5s 18 20 mph 1020.2mb 58f 58f
9:50 3.5ft 8s 5s 16 18 mph 1020.4mb 58f 59f
8:50 3.5ft 8s 5s 18 22 mph 1020.1mb 58f 59f
7:50 2.5ft 8s 5s 16 18 mph 1020.1mb 58f 60f
6:50 2.5ft 8s 4s 16 20 mph 1020mb 59f 60f
5:50 2.5ft 8s 4s 18 22 mph 1020.2mb 58f 60f
4:50 2.5ft 8s 5s 11 13 mph 1020.4mb 58f 60f
3:50 2.5ft 8s 4s 13 16 mph 1020.8mb 58f 59f
2:50 2.5ft 8s 4s 16 18 mph 1021mb 58f 59f
1:50 2.5ft 8s 4s 16 18 mph 1021.3mb 58f 58f
12:50 2.5ft 8s 4s 18 20 mph 1021.5mb 57f 58f
11:50 2.5ft 8s 5s 16 18 mph 1021.5mb 57f 58f
10:50 2.5ft 7s 5s 9
mph
1021.8mb 57f 57f
9:50 2.5ft 8s 5s 9 11 mph 1021.6mb 56f 57f
8:50 2.5ft 8s 5s 11
mph
1021.5mb 56f 56f
7:50 2.5ft 7s 5s 11 13 mph 1021.1mb 55f 56f
6:50 2.5ft 8s 4s 13 18 mph 1021mb 55f 56f
5:50 3ft 8s 4s 13 16 mph 1020.5mb 55f 56f
4:50 2.5ft 8s 5s 13 18 mph 1020.3mb 56f 56f
3:50 3ft 5s 5s 13 16 mph 1019.9mb 56f 56f
2:50 3ft 7s 4s 13 16 mph 1019.7mb 56f 56f